Location: Ford County Road and Bridge Department
(37.7686°N, 99.9762°W)
Time: 14:42:20
(UTC+00:00)

Cosmos 1300 - Pass Details

Date: 18 January 2020
Orbit: 511 x 515 km, 82.5° (Epoch: 25 February)

Event Time Altitude Azimuth Distance (km) Brightness Sun altitude
Rises 01:09:35 0° 348° (NNW) 2,635 6.3 -16.2°
Reaches altitude 10° 01:11:45 10° 345° (NNW) 1,743 5.4 -16.6°
Maximum altitude 01:15:30 60° 265° (W) 593 3.2 -17.4°
Drops below altitude 10° 01:19:14 10° 186° (S) 1,727 5.6 -18.1°
Sets 01:21:22 0° 182° (S) 2,607 6.5 -18.5°
